Weather History for Annette Island, AK

Change the Weather History Date:

Tuesday, May 8, 2012

  Actual Average Record
Temperature  
Mean Temperature 44 °F 49 °F  
Max Temperature 49 °F 55 °F 72 °F (1957)
Min Temperature 39 °F 42 °F 31 °F (1971)
Degree Days  
Heating Degree Days 21 17  
Month to date heating degree days 162 139  
Since 1 July heating degree days 6498 6084  
Cooling Degree Days 0    
Month to date cooling degree days 0  
Year to date cooling degree days 0  
Moisture  
Dew Point 36 °F    
Average Humidity 0    
Maximum Humidity 0    
Minimum Humidity 0    
Precipitation  
Precipitation 0.01 in 0.19 in 0.83 in (1958)
Month to date precipitation 5.64 1.52  
Year to date precipitation 39.77 34.38  
Snow  
Snow 0.00 in 0.00 in T in (1955)
Month to date snowfall 0.0 0.1  
Since 1 July snowfall 50.4 34.9  
Snow Depth 0.00 in    
Sea Level Pressure  
Sea Level Pressure 29.92 in    
Wind  
Wind Speed 9 mph (SSE)    
Max Wind Speed 18 mph    
Max Gust Speed 29 mph    
Visibility 10 miles    
Events Rain    
T = Trace of Precipitation, MM = Missing Value Source: NWS Daily Summary

Daily Weather History Graph

Daily Weather History Graph

Search for Another Location

Airport:

Trip Planner

Search our weather history database for the weather conditions in past years. The results will help you decide how hot, cold, wet, or windy it might be!

Date:

Astronomy

May. 08, 2012 Rise Set
Actual Time 4:50 AM AKDT 8:36 PM AKDT
Civil Twilight 4:04 AM AKDT 9:22 PM AKDT
Nautical Twilight 3:00 AM AKDT 10:27 PM AKDT
Astronomical Twilight 1:15 AM AKDT 12:10 AM AKDT
Moon No Moon Rise 6:49 AM AKDT (5/8)
Length of Visible Light 17h 17m
Length of Day
15h 46m
Waning Gibbous, 89% of the Moon is Illuminated
May 8
Waning Gibbous
May 12
Last Quarter
May 20
New
May 28
First Quarter
Jun 4
Full

Hourly Weather History & Observations

Time (AKDT) Temp. Windchill Dew Point Humidity Pressure Visibility Wind Dir Wind Speed Gust Speed Precip Events Conditions
12:28 AM 42.8 °F 38.6 °F 39.2 °F 87% 29.88 in 10.0 mi South 6.9 mph - N/A   Overcast
12:44 AM 42.8 °F 38.0 °F 37.4 °F 81% 29.88 in 10.0 mi South 8.1 mph 16.1 mph N/A   Overcast
12:53 AM 43.0 °F 37.2 °F 37.9 °F 82% 29.89 in 10.0 mi South 10.4 mph 19.6 mph N/A   Overcast
1:30 AM 42.8 °F 38.0 °F 37.4 °F 81% 29.90 in 10.0 mi SSW 8.1 mph 18.4 mph 0.00 in Rain Light Rain
1:53 AM 41.0 °F 37.1 °F 37.9 °F 89% 29.92 in 8.0 mi Variable 5.8 mph - 0.01 in Rain Light Rain
2:22 AM 41.0 °F 38.0 °F 37.4 °F 87% 29.93 in 10.0 mi SSW 4.6 mph - 0.00 in   Overcast
2:53 AM 41.0 °F 37.1 °F 37.9 °F 89% 29.94 in 10.0 mi SSW 5.8 mph - 0.00 in Rain Light Rain
3:53 AM 39.9 °F 35.8 °F 34.0 °F 79% 29.96 in 10.0 mi Variable 5.8 mph - 0.00 in   Partly Cloudy
4:53 AM 39.9 °F 37.8 °F 34.0 °F 79% 29.98 in 10.0 mi Variable 3.5 mph - N/A   Mostly Cloudy
5:53 AM 41.0 °F 39.0 °F 35.1 °F 79% 29.99 in 10.0 mi SE 3.5 mph - N/A   Mostly Cloudy
6:17 AM 42.8 °F 38.6 °F 35.6 °F 76% 30.00 in 10.0 mi Variable 6.9 mph - N/A   Mostly Cloudy
6:35 AM 42.8 °F 40.1 °F 35.6 °F 76% 30.00 in 10.0 mi Variable 4.6 mph - N/A   Mostly Cloudy
6:53 AM 43.0 °F 38.8 °F 35.1 °F 74% 30.01 in 10.0 mi Variable 6.9 mph - N/A   Overcast
7:53 AM 44.1 °F 39.0 °F 34.0 °F 68% 30.02 in 10.0 mi South 9.2 mph - N/A   Mostly Cloudy
8:53 AM 46.0 °F 41.9 °F 34.0 °F 63% 30.02 in 10.0 mi South 8.1 mph - N/A   Mostly Cloudy
9:53 AM 46.0 °F 39.9 °F 36.0 °F 68% 30.02 in 10.0 mi South 13.8 mph 20.7 mph N/A   Partly Cloudy
10:53 AM 46.9 °F - 36.0 °F 66% 30.02 in 10.0 mi SSE 12.7 mph 21.9 mph N/A   Scattered Clouds
11:53 AM 48.0 °F - 36.0 °F 63% 30.01 in 10.0 mi SSE 13.8 mph 24.2 mph N/A   Mostly Cloudy
12:53 PM 48.0 °F - 37.0 °F 66% 30.00 in 10.0 mi SSE 11.5 mph 23.0 mph N/A   Scattered Clouds
1:53 PM 46.9 °F - 37.0 °F 68% 29.99 in 10.0 mi SSE 18.4 mph 27.6 mph N/A   Mostly Cloudy
2:53 PM 46.9 °F - 36.0 °F 66% 29.97 in 10.0 mi SSE 11.5 mph 25.3 mph N/A   Mostly Cloudy
3:43 PM 46.4 °F 40.7 °F 35.6 °F 66% 29.94 in 10.0 mi SSE 12.7 mph 24.2 mph N/A   Mostly Cloudy
3:53 PM 46.0 °F 39.9 °F 37.0 °F 71% 29.95 in 10.0 mi SSE 13.8 mph 23.0 mph N/A   Mostly Cloudy
4:38 PM 46.4 °F 40.1 °F 35.6 °F 66% 29.93 in 10.0 mi SSE 15.0 mph 24.2 mph N/A   Overcast
4:53 PM 45.0 °F 37.9 °F 36.0 °F 71% 29.93 in 10.0 mi SSE 16.1 mph 29.9 mph N/A   Overcast
5:20 PM 42.8 °F 37.0 °F 35.6 °F 76% 29.92 in 10.0 mi SW 10.4 mph 26.5 mph N/A   Overcast
5:53 PM 39.0 °F 34.0 °F 36.0 °F 89% 29.91 in 5.0 mi SSE 6.9 mph 18.4 mph 0.06 in Rain Light Rain
6:51 PM 39.2 °F 29.3 °F 37.4 °F 93% 29.88 in 9.0 mi SE 20.7 mph 28.8 mph 0.05 in Rain Light Rain
6:53 PM 39.9 °F 30.2 °F 37.0 °F 89% 29.89 in 9.0 mi SE 20.7 mph 29.9 mph 0.05 in Rain Light Rain
7:48 PM 39.2 °F 33.6 °F 37.4 °F 93% 29.89 in 6.0 mi SW 8.1 mph - 0.05 in Rain Light Rain
7:53 PM 37.9 °F 35.5 °F 37.0 °F 97% 29.89 in 5.0 mi Variable 3.5 mph - 0.06 in Rain Rain
8:03 PM 37.4 °F - 35.6 °F 93% 29.88 in 10.0 mi Calm Calm - 0.00 in Rain Light Rain
8:44 PM 39.2 °F 34.2 °F 35.6 °F 87% 29.89 in 10.0 mi ESE 6.9 mph - 0.00 in   Overcast
8:53 PM 39.0 °F 35.7 °F 36.0 °F 89% 29.89 in 10.0 mi SE 4.6 mph - 0.00 in   Overcast
9:13 PM 39.2 °F 35.9 °F 37.4 °F 93% 29.87 in 10.0 mi ESE 4.6 mph - 0.00 in Rain Light Rain
9:53 PM 39.9 °F 32.5 °F 35.1 °F 83% 29.88 in 10.0 mi South 12.7 mph 20.7 mph 0.01 in Rain Light Rain
10:02 PM 39.2 °F 33.6 °F 35.6 °F 87% 29.87 in 10.0 mi SSE 8.1 mph 21.9 mph 0.01 in Rain Light Rain
10:12 PM 41.0 °F 34.3 °F 35.6 °F 81% 29.86 in 10.0 mi South 11.5 mph 19.6 mph 0.01 in   Overcast
10:19 PM 39.2 °F 31.6 °F 33.8 °F 81% 29.86 in 10.0 mi South 12.7 mph 25.3 mph 0.01 in Rain Light Rain
10:53 PM 39.0 °F 34.0 °F 33.1 °F 79% 29.86 in 10.0 mi SE 6.9 mph - 0.01 in   Mostly Cloudy
11:01 PM 39.2 °F 32.0 °F 35.6 °F 87% 29.86 in 10.0 mi South 11.5 mph 20.7 mph N/A   Mostly Cloudy
11:09 PM 41.0 °F 34.3 °F 33.8 °F 76% 29.86 in 10.0 mi South 11.5 mph 20.7 mph N/A   Overcast
11:49 PM 39.2 °F 31.2 °F 33.8 °F 81% 29.86 in 10.0 mi South 13.8 mph 24.2 mph N/A   Overcast
11:51 PM 39.2 °F 31.2 °F 33.8 °F 81% 29.86 in 10.0 mi South 13.8 mph 24.2 mph 0.00 in Rain Light Rain
11:53 PM 39.0 °F 31.4 °F 34.0 °F 82% 29.86 in 10.0 mi South 12.7 mph 24.2 mph 0.00 in Rain Light Rain